Content
SEND FEEDBACK

Daily
Averages
Monthly
Summary
Turkey

CEYHAN, TURKEY


Home > Middle East > Turkey
Elevation: 98 feet     Latitude: 37 00N     Longitude: 035 48E

WEATHER
 
SELECT A DAY
Number of Records: 176,375;   Date Range: 7/1/96 - 8/12/14
 
SHARE

PRINT THIS DATA

[ ← Previous Day ]
WEATHER ALMANAC - MARCH 19, 2013
[ Next Day → ]
[ °C ]   °F
Weather ElementAverageHighLow
Temperature50.9 °F62.6 °F (2:20 pm)37.4 °F (2:50 am)
Dewpoint32.8 °F41 °F (8:20 pm)28.4 °F (6:20 am)
Humidity52.3 %81 % (12:50 am)18 % (2:00 pm)
Barometer30.02 in30.06 in (12:50 am)29.98 in (2:50 pm)
Wind Speed5.7 mph12.7 mph (8:20 am)
Weather ElementAverage
Visibility6 mi
Wind DirectionESE (97.1 °)

Weather ElementTotal
Precipitation---
Heating Degree Days15 (Base 65)
Averaged from 51 records on March 19, 2013
WEATHER CONDITIONS BREAKOUT
WIND DIRECTION BREAKOUT
WEATHER BY HOUR - MARCH 19, 2013
[ °C ]   °F
Local TimeTemperatureDewpointHumidityBarometerVisibilityWind DirectionWind SpeedGust SpeedPrecipitationEventsConditions
12:50 AM39.2 °F33.8 °F81 %30.06 inNE (40°)6.9 mphClear
1:20 AM39.2 °F32.0 °F75 %30.06 inNE (50°)8.1 mphClear
1:50 AM39.2 °F32.0 °F75 %30.06 inNE (40°)8.1 mphClear
2:00 AM39.0 °F32.0 °F66 %30.06 in6.0 miNE (40°)8.1 mph
2:20 AM39.2 °F32.0 °F75 %30.04 inNE (40°)9.2 mphClear
2:50 AM37.4 °F32.0 °F81 %30.04 inNE (40°)9.2 mphClear
3:20 AM39.2 °F32.0 °F75 %30.04 inNNE (30°)8.1 mphClear
3:50 AM39.2 °F32.0 °F75 %30.04 inNNE (30°)5.8 mphClear
4:20 AM41.0 °F32.0 °F70 %30.04 inNE (40°)3.5 mphClear
4:50 AM42.8 °F30.2 °F61 %30.04 inNorth (10°)3.5 mphClear
5:20 AM41.0 °F30.2 °F65 %30.04 inNNE (20°)2.3 mphClear
5:50 AM42.8 °F30.2 °F61 %30.04 inNorth (10°)4.6 mphClear
6:20 AM42.8 °F28.4 °F57 %30.06 inNE (40°)2.3 mphClear
6:50 AM44.6 °F32.0 °F61 %30.06 inNorth (10°)4.6 mphClear
7:20 AM46.4 °F32.0 °F57 %30.04 inNE (50°)9.2 mphClear
7:50 AM50.0 °F30.2 °F47 %30.04 inNNE (20°)10.4 mphClear
8:00 AM49.0 °F31.0 °F37 %30.05 in6.0 miNNE (20°)10.4 mphClear
8:20 AM51.8 °F32.0 °F47 %30.04 inNE (40°)12.7 mphClear
8:50 AM53.6 °F32.0 °F44 %30.04 inNE (40°)11.5 mphClear
9:20 AM55.4 °F32.0 °F41 %30.06 inNE (40°)8.1 mphClear
9:50 AM57.2 °F32.0 °F38 %30.04 inENE (60°)8.1 mphClear
10:20 AM59.0 °F32.0 °F36 %30.04 inNE (50°)5.8 mphClear
10:50 AM59.0 °F30.2 °F34 %30.04 inNE (40°)8.1 mphClear
11:20 AM59.0 °F30.2 °F34 %30.04 inNNW (330°)4.6 mphClear
11:50 AM59.0 °F32.0 °F36 %30.04 inNNW (330°)5.8 mphClear
12:20 PM59.0 °F30.2 °F34 %30.01 inNE (50°)2.3 mphClear
12:50 PM60.8 °F30.2 °F31 %30.01 inNorth (360°)2.3 mphClear
1:20 PM60.8 °F30.2 °F31 %30.01 inSW (220°)4.6 mphClear
1:50 PM60.8 °F30.2 °F31 %30.01 inSouth (180°)3.5 mphClear
2:00 PM62.0 °F29.0 °F18 %30.01 in6.0 miSouth (180°)3.5 mphClear
2:20 PM62.6 °F30.2 °F30 %30.01 inNE (40°)4.6 mphClear
2:50 PM60.8 °F30.2 °F31 %29.98 inNorth (350°)2.3 mphClear
3:20 PM60.8 °F30.2 °F31 %29.98 inVariable2.3 mphClear
3:50 PM60.8 °F30.2 °F31 %29.98 inNE (50°)1.2 mphClear
4:20 PM60.8 °F30.2 °F31 %29.98 inVariable2.3 mphClear
4:50 PM60.8 °F33.8 °F36 %29.98 inNorth (360°)3.5 mphClear
5:20 PM60.8 °F30.2 °F31 %29.98 inNNW (330°)3.5 mphClear
5:50 PM59.0 °F33.8 °F39 %30.01 inNorth (350°)3.5 mphClear
6:20 PM57.2 °F30.2 °F36 %30.01 inNNE (30°)4.6 mphClear
6:50 PM55.4 °F39.2 °F54 %30.01 inNNE (30°)5.8 mphClear
7:20 PM51.8 °F39.2 °F62 %30.01 inNNE (30°)6.9 mphClear
7:50 PM50.0 °F39.2 °F66 %30.01 inNNE (30°)6.9 mphClear
8:00 PM49.0 °F39.0 °F58 %30.01 in6.0 miNNE (30°)6.9 mphClear
8:20 PM48.2 °F41.0 °F76 %30.01 inNE (40°)6.9 mphClear
8:50 PM48.2 °F39.2 °F71 %30.01 inNorth (360°)4.6 mphClear
9:20 PM48.2 °F37.4 °F66 %30.01 inNNE (30°)4.6 mphClear
9:50 PM48.2 °F37.4 °F66 %30.01 inNNE (20°)4.6 mphClear
10:20 PM48.2 °F35.6 °F62 %30.01 inNE (40°)4.6 mphClear
10:50 PM44.6 °F37.4 °F76 %30.01 inNNE (20°)4.6 mphClear
11:20 PM46.4 °F35.6 °F66 %30.01 inNNW (330°)3.5 mphClear
11:50 PM42.8 °F35.6 °F76 %29.98 inNNE (30°)6.9 mphClear
Hourly data recorded from LTAG, located miles away from Ceyhan, Turkey







STORIES FROM OUR PARTNERS